Weather History for Russellville, AR

Change the Weather History Date:

Saturday, April 20, 2013

  Actual Average (KHOT) Record (KHOT)
Temperature  
Mean Temperature 53 °F -  
Max Temperature 71 °F 76 °F 96 °F (1987)
Min Temperature 36 °F 52 °F 35 °F (1953)
Degree Days  
Heating Degree Days 12    
Growing Degree Days 3 (Base 50)    
Moisture  
Dew Point 37 °F    
Average Humidity 59    
Maximum Humidity 93    
Minimum Humidity 30    
Precipitation  
Precipitation 0.00 in - - ()
Sea Level Pressure  
Sea Level Pressure 30.16 in    
Wind  
Wind Speed 1 mph (SE)    
Max Wind Speed 6 mph    
Max Gust Speed -    
Visibility 10 miles    
Events      
Averages and records for this station are not official NWS values.
T = Trace of Precipitation, MM = Missing Value Source: NWS Daily Summary

Daily Weather History Graph

Daily Weather History Graph

Search for Another Location

Airport:

Trip Planner

Search our weather history database for the weather conditions in past years. The results will help you decide how hot, cold, wet, or windy it might be!

Date:

Astronomy

Apr. 20, 2013 Rise Set
Actual Time 6:33 AM CDT 7:49 PM CDT
Civil Twilight 6:07 AM CDT 8:15 PM CDT
Nautical Twilight 5:35 AM CDT 8:47 PM CDT
Astronomical Twilight 5:02 AM CDT 9:20 PM CDT
Moon 2:45 PM CDT (4/20) 3:11 AM CDT (4/20)
Length of Visible Light 14h 08m
Length of Day
13h 16m
Waxing Gibbous, 71% of the Moon is Illuminated
Apr 20
Waxing Gibbous
Apr 25
Full
May 2
Last Quarter
May 9
New
May 17
First Quarter

Hourly Weather History & Observations

Time (CDT) Temp. Dew Point Humidity Pressure Visibility Wind Dir Wind Speed Gust Speed Precip Events Conditions
12:53 AM 39.0 °F 35.1 °F 86% 30.14 in 10.0 mi Calm Calm - N/A   Clear
1:53 AM 37.9 °F 35.1 °F 89% 30.13 in 10.0 mi Calm Calm - N/A   Clear
2:53 AM 37.0 °F 35.1 °F 93% 30.14 in 10.0 mi Calm Calm - N/A   Clear
3:53 AM 37.0 °F 34.0 °F 89% 30.14 in 10.0 mi Calm Calm - N/A   Clear
4:53 AM 36.0 °F 34.0 °F 93% 30.15 in 10.0 mi Calm Calm - N/A   Clear
5:53 AM 36.0 °F 34.0 °F 93% 30.16 in 10.0 mi Calm Calm - N/A   Clear
6:53 AM 36.0 °F 34.0 °F 93% 30.18 in 10.0 mi Calm Calm - N/A   Clear
7:53 AM 42.1 °F 37.9 °F 85% 30.20 in 10.0 mi Calm Calm - N/A   Clear
8:53 AM 48.9 °F 39.9 °F 71% 30.21 in 10.0 mi Calm Calm - N/A   Clear
9:53 AM 54.0 °F 36.0 °F 51% 30.23 in 10.0 mi Calm Calm - N/A   Clear
10:53 AM 57.9 °F 35.1 °F 42% 30.23 in 10.0 mi Calm Calm - N/A   Clear
11:53 AM 62.1 °F 34.0 °F 35% 30.22 in 10.0 mi South 4.6 mph - N/A   Clear
12:53 PM 64.0 °F 37.9 °F 38% 30.20 in 10.0 mi Calm Calm - N/A   Clear
1:53 PM 66.9 °F 35.1 °F 31% 30.17 in 10.0 mi SE 4.6 mph - N/A   Clear
2:53 PM 69.1 °F 36.0 °F 30% 30.15 in 10.0 mi Calm Calm - N/A   Clear
3:53 PM 70.0 °F 37.0 °F 30% 30.13 in 10.0 mi Variable 4.6 mph - N/A   Clear
4:53 PM 70.0 °F 39.0 °F 32% 30.11 in 10.0 mi Variable 5.8 mph - N/A   Clear
5:53 PM 68.0 °F 39.0 °F 35% 30.11 in 10.0 mi Variable 4.6 mph - N/A   Clear
6:53 PM 66.9 °F 37.9 °F 34% 30.10 in 10.0 mi East 4.6 mph - N/A   Clear
7:53 PM 63.0 °F 39.9 °F 43% 30.12 in 10.0 mi Variable 3.5 mph - N/A   Clear
8:53 PM 60.1 °F 42.1 °F 51% 30.14 in 10.0 mi Calm Calm - N/A   Clear
9:53 PM 57.0 °F 42.1 °F 57% 30.18 in 10.0 mi Calm Calm - N/A   Clear
10:53 PM 55.0 °F 42.1 °F 62% 30.19 in 10.0 mi Calm Calm - N/A   Clear
11:53 PM 54.0 °F 42.1 °F 64% 30.20 in 10.0 mi Calm Calm - N/A   Clear